sat.trackr.live / text

‹ back to catalog

STARLINK-2701

NORAD 48656 · 2021-044U

PAYLOAD ACTIVE UNKNOWN

§ Identity

Operator
Country
US
Launch date
2021-05-26
Launch site
AFETR
Launch vehicle
Mass (kg)
RCS (m²)

Purposes: comms

External: N2YO · Heavens-Above · Gunter

§ Orbital elements

Epoch: 2026-09-19T13:35:29.833728Z

Period
94.01 min
Inclination
53.1591°
Eccentricity
0.0001234
Mean motion
15.31713881 rev/d
Perigee alt
469.9 km
Apogee alt
471.5 km
Semi-major
6,848.8 km
B*
5.8706e-5
RAAN
291.5728°
Arg perigee
88.5284°
Mean anomaly
271.5859°
Rev number
29,353

§ Raw data

STARLINK-27011 48656U 21044U   26262.56631752  .00001458  00000+0  58706-4 0  99902 48656  53.1591 291.5728 0001234  88.5284 271.5859 15.31713881293531

JSON: /api/v1/satellites/48656 · /tle

For live sub-satellite position, see the globe view (requires WebGL).

§ Visibility from observer

Set your observer location to see the next 7 days of passes ≥ 10°. The values pass through the URL so the page stays shareable.

No JS? Fill the form by hand. The geolocation button needs JavaScript.